Pensacola - Santa Rosa Island Weather Center

Moon Phase Calendar



Online Cameras

 


      

Current Conditions in Tiger Point
1/19/2021 11:59:40 PM

47°F
Feels Like 43
Clear
Humidity
93%
Pressure
30.33"
Wind
3.2 mph (SW)
Dew Point
45°F
UV Index
0/10 (Low)
Visibility
6 mi

Hourly Forecast

Date & Time Tue, Jan 19
11:00 PM
Wed, Jan 20
12:00 AM
Wed, Jan 20
1:00 AM
Wed, Jan 20
2:00 AM
Wed, Jan 20
3:00 AM
Wed, Jan 20
4:00 AM
Wed, Jan 20
5:00 AM
Wed, Jan 20
6:00 AM
Wed, Jan 20
7:00 AM
Wed, Jan 20
8:00 AM
Wed, Jan 20
9:00 AM
Wed, Jan 20
10:00 AM
Wed, Jan 20
11:00 AM
Wed, Jan 20
12:00 PM
Wed, Jan 20
1:00 PM
Wed, Jan 20
2:00 PM
Wed, Jan 20
3:00 PM
Wed, Jan 20
4:00 PM
Wed, Jan 20
5:00 PM
Wed, Jan 20
6:00 PM
Wed, Jan 20
7:00 PM
Wed, Jan 20
8:00 PM
Wed, Jan 20
9:00 PM
Wed, Jan 20
10:00 PM
Wed, Jan 20
11:00 PM
Thu, Jan 21
12:00 AM
Thu, Jan 21
1:00 AM
Thu, Jan 21
2:00 AM
Thu, Jan 21
3:00 AM
Thu, Jan 21
4:00 AM
Thu, Jan 21
5:00 AM
Thu, Jan 21
6:00 AM
Thu, Jan 21
7:00 AM
Thu, Jan 21
8:00 AM
Thu, Jan 21
9:00 AM
Thu, Jan 21
10:00 AM
Thu, Jan 21
11:00 AM
Thu, Jan 21
12:00 PM
Thu, Jan 21
1:00 PM
Thu, Jan 21
2:00 PM
Thu, Jan 21
3:00 PM
Thu, Jan 21
4:00 PM
Thu, Jan 21
5:00 PM
Thu, Jan 21
6:00 PM
Thu, Jan 21
7:00 PM
Thu, Jan 21
8:00 PM
Thu, Jan 21
9:00 PM
Thu, Jan 21
10:00 PM
Condition
Clear

Clear

Clear

Clear

Clear

Clear

Clear

Clear

Clear

Clear

Clear

Clouds

Clouds

Clouds

Clouds

Clouds

Clouds

Clouds

Clouds

Clouds

Clouds

Clouds

Clouds

Clouds

Clouds

Clouds

Clouds

Clouds

Clouds

Clouds

Clouds

Clouds

Clouds

Clouds

Clouds

Clouds

Clouds

Clouds

Clouds

Clouds

Clouds

Clouds

Clouds

Clouds

Clouds

Clouds

Clouds

Clouds
Temperature 47°F51°F54°F55°F54°F54°F53°F52°F51°F53°F56°F59°F58°F62°F64°F65°F65°F64°F61°F59°F58°F58°F57°F57°F56°F57°F57°F57°F57°F57°F56°F57°F57°F59°F63°F66°F67°F67°F68°F68°F67°F67°F65°F63°F63°F63°F63°F63°F
Feels Like 43°F48°F51°F51°F50°F50°F48°F46°F45°F47°F50°F54°F54°F60°F62°F63°F63°F62°F59°F57°F57°F57°F57°F57°F56°F55°F55°F54°F54°F54°F54°F54°F54°F57°F60°F62°F63°F62°F63°F64°F64°F63°F62°F62°F62°F62°F63°F63°F
Cloudiness 1%1%0%0%0%0%0%0%0%0%1%16%28%40%99%81%87%90%91%89%83%82%67%76%80%84%96%96%94%94%92%90%74%80%86%88%88%90%100%100%100%100%98%94%11%49%66%74%
Visibility 6 mi6 mi6 mi6 mi6 mi6 mi6 mi6 mi6 mi6 mi6 mi6 mi6 mi6 mi6 mi6 mi6 mi6 mi6 mi6 mi6 mi6 mi6 mi6 mi6 mi6 mi6 mi6 mi6 mi6 mi6 mi6 mi6 mi6 mi6 mi6 mi6 mi6 mi6 mi6 mi6 mi6 mi6 mi6 mi6 mi6 mi6 mi6 mi
Precipitation 0%0%0%0%0%0%0%0%0%0%0%0%0%0%0%0%0%0%0%0%0%0%0%0%0%0%0%0%0%0%0%0%0%0%0%0%0%0%0%0%0%0%0%0%0%0%0%0%
Humidity 93%78%71%66%67%67%67%71%74%70%67%61%63%56%55%56%58%61%69%75%78%80%81%82%83%84%85%84%83%85%86%87%88%82%75%70%67%66%66%67%68%71%77%84%87%89%88%88%
Dew Point 45°F45°F45°F43°F43°F43°F43°F43°F43°F44°F45°F45°F46°F47°F48°F49°F50°F51°F51°F51°F52°F52°F52°F52°F52°F52°F52°F52°F52°F52°F53°F53°F53°F54°F55°F56°F56°F56°F56°F56°F57°F57°F58°F58°F59°F59°F60°F60°F
Pressure 30.33"30.36"30.36"30.36"30.36"30.36"30.36"30.36"30.39"30.39"30.39"30.39"30.39"30.36"30.3"30.27"30.27"30.27"30.27"30.27"30.27"30.27"30.27"30.24"30.24"30.24"30.24"30.21"30.21"30.18"30.18"30.18"30.18"30.18"30.18"30.15"30.15"30.12"30.09"30.06"30.03"30.03"30.03"30.03"30.03"30.03"30"30"
Wind Speed 3.3 mph3.2 mph2.7 mph3.5 mph4.1 mph3.7 mph5.7 mph8 mph7 mph8.3 mph7.9 mph6.8 mph6.2 mph3.6 mph3.2 mph3.6 mph4.1 mph4.8 mph4.7 mph3.8 mph2.7 mph2.5 mph1.4 mph0.4 mph1.9 mph3 mph4.7 mph5.3 mph6.2 mph6 mph5.3 mph6 mph6.2 mph5.7 mph8.8 mph10 mph10.7 mph12.1 mph11.2 mph10.8 mph10.3 mph9.6 mph8 mph6.7 mph6.7 mph6.6 mph6.8 mph6.3 mph
Wind
Direction
204°
SSW
217°
SW
269°
W
302°
WNW
327°
NNW
320°
NW
334°
NNW
342°
NNW
352°
N
358°
N

N
13°
NNE
14°
NNE
12°
NNE
319°
NW
284°
WNW
256°
WSW
238°
WSW
231°
SW
241°
WSW
265°
W
288°
WNW
322°
NW
217°
SW
238°
WSW
231°
SW
243°
WSW
251°
WSW
250°
WSW
262°
W
261°
W
259°
W
265°
W
241°
WSW
228°
SW
230°
SW
229°
SW
227°
SW
230°
SW
228°
SW
229°
SW
225°
SW
217°
SW
212°
SSW
220°
SW
218°
SW
222°
SW
237°
WSW

Daily Forecast

Date High Low Precip. Humidity
Today
Jan 19

Clear
64 °F
47 °F
0%
45%
Wednesday
Jan 20

Clouds
65 °F
51 °F
0%
63%
Thursday
Jan 21

Clouds
67 °F
57 °F
0%
66%
Friday
Jan 22

Rain
67 °F
63 °F
91%
82%
Saturday
Jan 23

Rain
64 °F
51 °F
36%
63%
Sunday
Jan 24

Rain
65 °F
59 °F
27%
91%
Monday
Jan 25

Rain
71 °F
65 °F
93%
84%
Tuesday
Jan 26

Rain
69 °F
62 °F
95%
60%
Wednesday
Jan 27

Clear
71 °F
57 °F
0%
40%
Thursday
Jan 28

Clouds
55 °F
45 °F
0%
59%
Friday
Jan 29

Clear
51 °F
33 °F
0%
50%
Saturday
Jan 30

Clear
60 °F
39 °F
0%
50%
Sunday
Jan 31

Rain
66 °F
61 °F
23%
68%
Monday
Feb 1

Clear
64 °F
53 °F
0%
43%
Tuesday
Feb 2

Clear
60 °F
45 °F
0%
41%
Wednesday
Feb 3

Rain
65 °F
56 °F
20%
73%


Temperature 8-14 Day Outlook



Precipitation 8-14 Day Outlook




Quick Links
Pensacola - Santa Rosa Island News
Pensacola - Santa Rosa Island Photos
Pensacola - Santa Rosa Island Videos




About Us
Contact Us
Site Map
Search Site
Advertise With Us
   
Pensacola.USGulf.info
THE PENSACOLA - SANTA ROSA ISLAND WEBSITE

Copyright 2021, Coastal Town
Privacy    |    Legal